Location: Gleizolles
(44.4833°N, 6.7667°E)
Time: 16:00:34
(UTC+00:00)

Tiros 1 - Pass Details

Date: 02 July 2024
Orbit: 624 x 656 km, 48.4° (Epoch: 13 July)

Event Time Altitude Azimuth Distance (km) Brightness Sun altitude
Rises 21:57:28 0° 273° (W) 2,902 10.9 -18.8°
Reaches altitude 10° 21:59:50 10° 279° (W) 1,995 10.1 -19.0°
Maximum altitude 22:04:19 52° 356° (N) 778 7.9 -19.3°
Drops below altitude 10° 22:08:49 10° 73° (ENE) 2,000 9.6 -19.6°
Sets 22:11:11 0° 79° (ENE) 2,910 10.4 -19.8°
